Location: Unspecified
(49.2170°N, 0.0000°E)
Time: 15:41:46
(UTC+00:00)

Tiros 1 despin weight - Pass Details

Date: 29 January 2021
Orbit: 593 x 642 km, 48.2° (Epoch: 07 March)

Event Time Altitude Azimuth Distance (km) Brightness Sun altitude
Rises 11:31:13 0° 200° (SSW) 2,909 ? 22.3°
Reaches altitude 10° 11:34:14 10° 180° (S) 1,997 ? 22.4°
Maximum altitude 11:37:09 17° 140° (SE) 1,591 ? 22.5°
Drops below altitude 10° 11:40:03 10° 101° (E) 1,984 ? 22.6°
Sets 11:43:02 0° 81° (E) 2,882 ? 22.7°
